| time (UTC) | temp F | wind direction | speed knots | gust knots | rain 1hr in | rain 24hr in | rain mn in | humidity % | barometer mb |
| 20260505221833 | 75 | 252 | 4.3 | 9.6 | 0.00 | 0.00 | 0.00 | 41 | 1007.8 |
| 20260505220834 | 76 | 224 | 7.0 | 12.2 | 0.00 | 0.00 | 0.00 | 40 | 1007.9 |
| 20260505215851 | 77 | 237 | 4.3 | 7.8 | 0.00 | 0.00 | 0.00 | 38 | 1007.5 |
| 20260505214933 | 78 | 201 | 7.0 | 14.8 | 0.00 | 0.00 | 0.00 | 39 | 1007.6 |
| 20260505214850 | 78 | 197 | 2.6 | 5.2 | 0.00 | 0.00 | 0.00 | 39 | 1007.6 |
| 20260505213835 | 78 | 227 | 4.3 | 9.6 | 0.00 | 0.00 | 0.00 | 38 | 1007.5 |
| 20260505213752 | 78 | 192 | 3.5 | 7.0 | 0.00 | 0.00 | 0.00 | 39 | 1007.3 |
| 20260505211833 | 78 | 213 | 3.5 | 6.1 | 0.00 | 0.00 | 0.00 | 37 | 1007.2 |
| 20260505210835 | 79 | 244 | 3.5 | 9.6 | 0.00 | 0.00 | 0.00 | 37 | 1006.9 |
| 20260505205835 | 79 | 222 | 7.0 | 15.6 | 0.00 | 0.00 | 0.00 | 36 | 1007.0 |
| 20260505204933 | 79 | 220 | 6.1 | 13.9 | 0.00 | 0.00 | 0.00 | 37 | 1007.0 |
| 20260505204003 | 78 | 193 | 6.1 | 9.6 | 0.00 | 0.00 | 0.00 | 37 | 1007.1 |
| 20260505204000 | 78 | 218 | 4.3 | 11.3 | 0.00 | 0.00 | 0.00 | 36 | 1007.1 |
| 20260505203533 | 78 | 205 | 4.3 | 8.7 | 0.00 | 0.00 | 0.00 | 36 | 1007.1 |
| 20260505202534 | 78 | 233 | 6.1 | 13.0 | 0.00 | 0.00 | 0.00 | 35 | 1007.2 |
| 20260505202434 | 78 | 194 | 5.2 | 15.6 | 0.00 | 0.00 | 0.00 | 36 | 1007.2 |
| 20260505201434 | 79 | 247 | 3.5 | 7.0 | 0.00 | 0.00 | 0.00 | 35 | 1007.3 |
| 20260505200533 | 79 | 244 | 7.0 | 13.9 | 0.00 | 0.00 | 0.00 | 35 | 1007.3 |
| 20260505195535 | 79 | 203 | 3.5 | 6.1 | 0.00 | 0.00 | 0.00 | 35 | 1007.3 |
| 20260505195435 | 79 | 236 | 5.2 | 12.2 | 0.00 | 0.00 | 0.00 | 36 | 1007.3 |
| 20260505194449 | 78 | 208 | 3.5 | 7.8 | 0.00 | 0.00 | 0.00 | 36 | 1007.3 |
| 20260505193535 | 78 | 223 | 5.2 | 11.3 | 0.00 | 0.00 | 0.00 | 36 | 1007.5 |
| 20260505192534 | 79 | 202 | 7.0 | 13.0 | 0.00 | 0.00 | 0.00 | 37 | 1007.4 |
| 20260505192434 | 79 | 195 | 5.2 | 11.3 | 0.00 | 0.00 | 0.00 | 37 | 1007.5 |
| 20260505191451 | 78 | 259 | 5.2 | 11.3 | 0.00 | 0.00 | 0.00 | 35 | 1007.6 |
| 20260505190535 | 78 | 230 | 5.2 | 13.0 | 0.00 | 0.00 | 0.00 | 36 | 1007.6 |
| 20260505185536 | 79 | 240 | 4.3 | 12.2 | 0.00 | 0.00 | 0.00 | 36 | 1007.6 |
| 20260505185435 | 79 | 191 | 5.2 | 14.8 | 0.00 | 0.00 | 0.00 | 35 | 1007.6 |
| 20260505184433 | 78 | 240 | 4.3 | 7.8 | 0.00 | 0.00 | 0.00 | 36 | 1007.8 |
| 20260505183433 | 79 | 236 | 3.5 | 6.1 | 0.00 | 0.00 | 0.00 | 35 | 1008.0 |
| 20260505183334 | 79 | 222 | 3.5 | 7.8 | 0.00 | 0.00 | 0.00 | 36 | 1008.1 |
| 20260505182336 | 79 | 209 | 7.8 | 13.0 | 0.00 | 0.00 | 0.00 | 35 | 1008.2 |
| 20260505181335 | 79 | 225 | 3.5 | 7.8 | 0.00 | 0.00 | 0.00 | 35 | 1008.4 |
| 20260505180433 | 78 | 241 | 5.2 | 10.4 | 0.00 | 0.00 | 0.00 | 35 | 1008.4 |
| 20260505175433 | 78 | 236 | 5.2 | 8.7 | 0.00 | 0.00 | 0.00 | 35 | 1008.6 |
| 20260505174434 | 78 | 233 | 5.2 | 11.3 | 0.00 | 0.00 | 0.00 | 35 | 1008.6 |
| 20260505174334 | 78 | 171 | 7.0 | 20.0 | 0.00 | 0.00 | 0.00 | 36 | 1008.5 |
| 20260505173334 | 79 | 192 | 6.1 | 17.4 | 0.00 | 0.00 | 0.00 | 37 | 1008.8 |
| 20260505172333 | 78 | 142 | 6.1 | 10.4 | 0.00 | 0.00 | 0.00 | 36 | 1008.7 |
| 20260505172233 | 78 | 173 | 7.0 | 15.6 | 0.00 | 0.00 | 0.00 | 36 | 1008.8 |
| 20260505171235 | 78 | 221 | 3.5 | 7.0 | 0.00 | 0.00 | 0.00 | 37 | 1008.8 |
| 20260505170234 | 77 | 162 | 5.2 | 12.2 | 0.00 | 0.00 | 0.00 | 38 | 1009.0 |
| 20260505165233 | 77 | 244 | 5.2 | 7.8 | 0.00 | 0.00 | 0.00 | 37 | 1009.1 |
| 20260505165135 | 77 | 229 | 3.5 | 9.6 | 0.00 | 0.00 | 0.00 | 38 | 1009.2 |
| 20260505164234 | 78 | 189 | 2.6 | 6.1 | 0.00 | 0.00 | 0.00 | 37 | 1009.3 |
| 20260505162432 | 77 | 175 | 5.2 | 12.2 | 0.00 | 0.00 | 0.00 | 38 | 1009.7 |
| 20260505152449 | 72 | 245 | 4.3 | 8.7 | 0.00 | 0.00 | 0.00 | 43 | 1011.2 |
| 20260505151537 | 71 | 266 | 5.2 | 8.7 | 0.00 | 0.00 | 0.00 | 45 | 1011.3 |
| 20260505151434 | 71 | 255 | 5.2 | 11.3 | 0.00 | 0.00 | 0.00 | 45 | 1011.4 |
| 20260505150434 | 71 | 220 | 6.1 | 14.8 | 0.00 | 0.00 | 0.00 | 46 | 1011.4 |
| 20260505140434 | 68 | 227 | 5.2 | 9.6 | 0.00 | 0.00 | 0.00 | 51 | 1011.7 |
| 20260505123433 | 59 | 191 | 1.7 | 4.3 | 0.00 | 0.00 | 0.00 | 63 | 1012.1 |
| 20260505122335 | 59 | 215 | 0.9 | 3.5 | 0.00 | 0.00 | 0.00 | 64 | 1012.0 |
| 20260505121335 | 59 | 184 | 0.9 | 1.7 | 0.00 | 0.00 | 0.00 | 62 | 1012.1 |
| 20260505120335 | 58 | 229 | 5.2 | 11.3 | 0.00 | 0.00 | 0.00 | 64 | 1012.1 |
| 20260505115334 | 58 | 151 | 0.9 | 1.7 | 0.00 | 0.00 | 0.00 | 65 | 1012.1 |
| 20260505114333 | 57 | 233 | 3.5 | 7.0 | 0.00 | 0.00 | 0.00 | 68 | 1012.3 |
| 20260505112334 | 55 | 236 | 0.0 | 1.7 | 0.00 | 0.00 | 0.00 | 70 | 1012.0 |
| 20260505110433 | 53 | 171 | 1.7 | 3.5 | 0.00 | 0.00 | 0.00 | 72 | 1011.9 |
| 20260505100335 | 52 | 171 | 0.0 | 1.7 | 0.00 | 0.00 | 0.00 | 70 | 1011.8 |
| 20260505095351 | 53 | 195 | 1.7 | 2.6 | 0.00 | 0.00 | 0.00 | 69 | 1011.8 |
| 20260505094433 | 53 | 187 | 1.7 | 3.5 | 0.00 | 0.00 | 0.00 | 68 | 1011.7 |
| 20260505094335 | 53 | 212 | 0.9 | 1.7 | 0.00 | 0.00 | 0.00 | 69 | 1011.8 |
| 20260505092334 | 53 | 158 | 0.0 | 0.9 | 0.00 | 0.00 | 0.00 | 68 | 1011.8 |
| 20260505091333 | 53 | 190 | 0.9 | 4.3 | 0.00 | 0.00 | 0.00 | 67 | 1011.9 |
| 20260505090432 | 53 | 184 | 1.7 | 3.5 | 0.00 | 0.00 | 0.00 | 67 | 1011.9 |
| 20260505085435 | 53 | 220 | 0.0 | 0.0 | 0.00 | 0.00 | 0.00 | 66 | 1011.8 |
| 20260505082533 | 54 | 185 | 0.0 | 1.7 | 0.00 | 0.00 | 0.00 | 61 | 1011.6 |
| 20260505081536 | 55 | 240 | 1.7 | 3.5 | 0.00 | 0.00 | 0.00 | 58 | 1011.7 |
| 20260505080533 | 57 | 197 | 1.7 | 3.5 | 0.00 | 0.00 | 0.00 | 57 | 1011.6 |
| 20260505080432 | 57 | 195 | 1.7 | 3.5 | 0.00 | 0.00 | 0.00 | 57 | 1011.7 |
| 20260505075532 | 58 | 202 | 1.7 | 2.6 | 0.00 | 0.00 | 0.00 | 56 | 1011.7 |
| 20260505074551 | 58 | 226 | 3.5 | 6.1 | 0.00 | 0.00 | 0.00 | 58 | 1011.6 |
| 20260505073535 | 56 | 247 | 1.7 | 4.3 | 0.00 | 0.00 | 0.00 | 65 | 1011.8 |
| 20260505072632 | 51 | 246 | 0.9 | 1.7 | 0.00 | 0.00 | 0.00 | 70 | 1011.7 |
| 20260505071634 | 51 | 187 | 1.7 | 1.7 | 0.00 | 0.00 | 0.00 | 70 | 1011.8 |
| 20260505070634 | 52 | 124 | 0.0 | 0.9 | 0.00 | 0.00 | 0.00 | 70 | 1011.7 |
| 20260505065633 | 51 | 160 | 0.9 | 1.7 | 0.00 | 0.00 | 0.00 | 70 | 1011.9 |
| 20260505064634 | 51 | 223 | 1.7 | 4.3 | 0.00 | 0.00 | 0.00 | 70 | 1012.0 |
| 20260505063633 | 51 | 131 | 2.6 | 3.5 | 0.00 | 0.00 | 0.00 | 70 | 1012.1 |
| 20260505062635 | 51 | 293 | 2.6 | 3.5 | 0.00 | 0.00 | 0.00 | 70 | 1012.3 |
| 20260505061649 | 51 | 270 | 0.0 | 0.0 | 0.00 | 0.00 | 0.00 | 68 | 1012.4 |
| 20260505055751 | 52 | 247 | 0.0 | 0.9 | 0.00 | 0.00 | 0.00 | 68 | 1012.5 |
| 20260505055651 | 52 | 247 | 1.7 | 2.6 | 0.00 | 0.00 | 0.00 | 69 | 1012.5 |
| 20260505054734 | 51 | 112 | 0.9 | 1.7 | 0.00 | 0.00 | 0.00 | 69 | 1012.5 |
| 20260505053734 | 52 | 112 | 1.7 | 1.7 | 0.00 | 0.00 | 0.00 | 68 | 1012.7 |
| 20260505052733 | 52 | 247 | 0.0 | 0.0 | 0.00 | 0.00 | 0.00 | 66 | 1012.7 |
| 20260505051734 | 52 | 202 | 0.0 | 1.7 | 0.00 | 0.00 | 0.00 | 67 | 1012.7 |
| 20260505050733 | 53 | 202 | 0.0 | 0.0 | 0.00 | 0.00 | 0.00 | 65 | 1012.9 |
| 20260505041733 | 54 | 190 | 0.9 | 2.6 | 0.00 | 0.00 | 0.00 | 62 | 1012.8 |
| 20260505040733 | 54 | 183 | 0.0 | 1.7 | 0.00 | 0.00 | 0.00 | 61 | 1012.6 |
| 20260505035741 | 55 | 209 | 1.7 | 3.5 | 0.00 | 0.00 | 0.00 | 61 | 1012.5 |
| 20260505034742 | 55 | 242 | 1.7 | 4.3 | 0.00 | 0.00 | 0.00 | 59 | 1012.5 |
| 20260505033838 | 55 | 230 | 0.9 | 2.6 | 0.00 | 0.00 | 0.00 | 59 | 1012.4 |
| 20260505032840 | 56 | 226 | 2.6 | 4.3 | 0.00 | 0.00 | 0.00 | 59 | 1012.4 |
| 20260505031838 | 56 | 221 | 5.2 | 8.7 | 0.00 | 0.00 | 0.00 | 58 | 1012.4 |
| 20260505030741 | 56 | 186 | 1.7 | 5.2 | 0.00 | 0.00 | 0.00 | 57 | 1012.4 |
| 20260505025740 | 57 | 208 | 3.5 | 5.2 | 0.00 | 0.00 | 0.00 | 56 | 1012.4 |
| 20260505024741 | 57 | 242 | 0.9 | 3.5 | 0.00 | 0.00 | 0.00 | 56 | 1012.4 |
| 20260505023741 | 57 | 160 | 1.7 | 3.5 | 0.00 | 0.00 | 0.00 | 55 | 1012.4 |
| 20260505022755 | 58 | 239 | 5.2 | 8.7 | 0.00 | 0.00 | 0.00 | 54 | 1012.4 |
| 20260505021838 | 58 | 247 | 2.6 | 4.3 | 0.00 | 0.00 | 0.00 | 54 | 1012.3 |
| 20260505021757 | 58 | 186 | 2.6 | 5.2 | 0.00 | 0.00 | 0.00 | 54 | 1012.3 |
| 20260505020739 | 58 | 244 | 4.3 | 8.7 | 0.00 | 0.00 | 0.00 | 53 | 1012.2 |
| 20260505020641 | 58 | 240 | 1.7 | 6.1 | 0.00 | 0.00 | 0.00 | 53 | 1012.2 |
| 20260505015641 | 58 | 246 | 0.0 | 2.6 | 0.00 | 0.00 | 0.00 | 51 | 1012.3 |
| 20260505014739 | 59 | 218 | 3.5 | 7.8 | 0.00 | 0.00 | 0.00 | 51 | 1012.2 |
| 20260505011937 | 60 | 245 | 3.5 | 6.1 | 0.00 | 0.00 | 0.00 | 47 | 1011.8 |
| 20260505011838 | 60 | 249 | 3.5 | 7.0 | 0.00 | 0.00 | 0.00 | 48 | 1011.8 |
| 20260505010839 | 59 | 208 | 1.7 | 3.5 | 0.00 | 0.00 | 0.00 | 46 | 1011.7 |
| 20260505005838 | 61 | 202 | 4.3 | 10.4 | 0.00 | 0.00 | 0.00 | 43 | 1011.6 |
| 20260505004839 | 61 | 236 | 1.7 | 2.6 | 0.00 | 0.00 | 0.00 | 43 | 1011.2 |
| 20260505004740 | 61 | 230 | 0.9 | 1.7 | 0.00 | 0.00 | 0.00 | 43 | 1011.0 |
| 20260505003839 | 61 | 221 | 0.9 | 3.5 | 0.00 | 0.00 | 0.00 | 42 | 1011.0 |
| 20260505002838 | 61 | 194 | 1.7 | 2.6 | 0.00 | 0.00 | 0.00 | 42 | 1011.0 |
| 20260505002739 | 61 | 247 | 1.7 | 2.6 | 0.00 | 0.00 | 0.00 | 42 | 1011.0 |
| 20260505002641 | 61 | 236 | 2.6 | 6.1 | 0.00 | 0.00 | 0.00 | 42 | 1011.0 |
| 20260505001738 | 62 | 232 | 0.9 | 2.6 | 0.00 | 0.00 | 0.00 | 41 | 1010.8 |
| 20260505000739 | 63 | 247 | 0.9 | 2.6 | 0.00 | 0.00 | 0.00 | 39 | 1010.5 |
| 20260505000640 | 63 | 237 | 1.7 | 3.5 | 0.00 | 0.00 | 0.00 | 39 | 1010.5 |
| 20260504235640 | 64 | 240 | 1.7 | 3.5 | 0.00 | 0.00 | 0.00 | 39 | 1010.4 |
| 20260504232638 | 65 | 221 | 1.7 | 4.3 | 0.00 | 0.00 | 0.00 | 36 | 1009.9 |
| 20260504230837 | 66 | 229 | 4.3 | 7.0 | 0.00 | 0.00 | 0.00 | 35 | 1009.6 |
| 20260504230740 | 66 | 240 | 5.2 | 8.7 | 0.00 | 0.00 | 0.00 | 34 | 1009.5 |
| 20260504225840 | 67 | 247 | 2.6 | 4.3 | 0.00 | 0.00 | 0.00 | 33 | 1009.5 |
| 20260504224842 | 67 | 183 | 0.9 | 6.1 | 0.00 | 0.00 | 0.00 | 34 | 1009.3 |